EW8530 Weather Reports


Display with metric or nautical units.
time (UTC)temp
F
wind
direction
speed
MPH
gust
MPH
rain 1hr
in
rain 24hr
in
rain mn
in
humidity
%
barometer
mb
20260505071632 62 93 4.0 10.0 0.00 0.98 0.20 93 1020.4
20260505071140 61 64 3.0 9.0 0.00 0.98 0.20 94 1020.5
20260505070624 60 73 4.0 9.0 0.00 0.98 0.20 95 1020.5
20260505070133 60 355 3.0 8.0 0.00 0.98 0.20 95 1020.6
20260505065702 60 1 2.0 8.0 0.00 0.98 0.20 96 1020.4
20260505065131 59 354 4.0 12.0 0.00 0.98 0.20 97 1020.5
20260505064640 59 64 4.0 12.0 0.00 0.98 0.20 97 1020.7
20260505064128 59 355 4.0 11.0 0.00 0.98 0.20 98 1020.7
20260505063637 58 352 3.0 9.0 0.00 0.98 0.20 98 1020.7
20260505063125 57 89 2.0 6.0 0.00 0.98 0.20 98 1020.7
20260505062656 57 64 2.0 8.0 0.00 0.98 0.20 98 1020.7
20260505062123 57 58 4.0 9.0 0.00 0.98 0.20 98 1020.7
20260505061631 57 6 3.0 12.0 0.00 0.98 0.20 98 1020.7
20260505061141 57 69 5.0 12.0 0.00 0.98 0.20 98 1020.9
20260505060652 57 324 4.0 10.0 0.00 0.98 0.20 98 1020.9
20260505060140 57 46 4.0 14.0 0.00 0.98 0.20 98 1020.8
20260505055628 56 64 6.0 14.0 0.00 0.98 0.20 98 1020.8
20260505055138 56 355 5.0 16.0 0.00 0.98 0.20 98 1020.9
20260505054648 56 58 5.0 14.0 0.00 0.98 0.20 99 1021.1
20260505054135 56 349 7.0 14.0 0.00 0.98 0.20 99 1020.9
20260505053626 56 8 6.0 13.0 0.00 0.98 0.20 99 1021.0
20260505053134 56 360 6.0 14.0 0.00 0.98 0.20 99 1021.0
20260505052638 55 97 6.0 14.0 0.04 0.98 0.20 99 1020.8
20260505052141 55 28 4.0 9.0 0.08 0.98 0.20 99 1021.0
20260505051633 55 60 3.0 9.0 0.12 0.98 0.20 99 1021.0
20260505051129 55 106 4.0 10.0 0.12 0.98 0.20 99 1021.0
20260505050637 55 43 5.0 11.0 0.12 0.98 0.20 99 1021.0
20260505050124 55 54 5.0 12.0 0.12 0.98 0.20 99 1021.0
20260505041639 55 46 6.0 11.0 0.00 0.87 0.17 99 1021.8
20260505041126 55 5 3.0 6.0 0.00 0.87 0.17 99 1021.4
20260505040629 55 50 2.0 5.0 0.00 0.87 0.17 99 1021.0
20260505040136 55 117 0.0 5.0 0.00 0.87 0.17 99 1021.1
20260505035625 55 118 1.0 4.0 0.04 0.87 0.17 99 1021.1
20260505035131 55 358 1.0 7.0 0.12 0.87 0.17 99 1021.1
20260505034636 55 340 1.0 7.0 0.20 0.87 0.17 99 1021.3
20260505034154 55 343 3.0 6.0 0.28 0.87 0.17 99 1021.3
20260505033640 55 348 2.0 6.0 0.59 0.87 0.17 99 1021.5
20260505033124 55 353 2.0 6.0 0.87 0.87 0.17 99 1021.5
20260505032627 55 5 2.0 6.0 0.87 0.87 0.17 99 1021.7
20260505032133 55 58 2.0 4.0 0.87 0.87 0.17 99 1021.7
20260505031626 55 298 1.0 4.0 0.87 0.87 0.17 99 1021.7
20260505031134 55 348 1.0 4.0 0.87 0.87 0.17 99 1021.8
20260505030642 55 284 1.0 4.0 0.87 0.87 0.17 99 1021.9
20260505030130 55 279 1.0 7.0 0.87 0.87 0.17 99 1022.1
20260505025638 55 266 4.0 10.0 0.83 0.83 0.17 99 1022.0
20260505025140 55 271 5.0 15.0 0.75 0.75 0.15 99 1022.2
20260505024627 55 297 7.0 13.0 0.67 0.67 0.13 99 1022.3
20260505024140 55 276 6.0 12.0 0.59 0.59 0.12 99 1022.4
20260505023626 55 343 6.0 11.0 0.28 0.28 0.06 99 1022.6
20260505023134 54 290 5.0 12.0 0.00 0.00 0.00 99 1022.6
20260505022645 54 277 6.0 11.0 0.00 0.00 0.00 99 1022.7
20260505022149 54 124 0.0 1.0 0.00 0.00 0.00 99 1020.9
20260505021626 54 124 0.0 0.0 0.00 0.00 0.00 99 1020.7
20260505021149 54 124 0.0 0.0 0.00 0.00 0.00 99 1020.6
20260505020624 53 124 0.0 0.0 0.00 0.00 0.00 99 1020.6
20260505020137 53 125 0.0 0.0 0.00 0.00 0.00 99 1020.6
20260505015641 53 124 0.0 0.0 0.00 0.00 0.00 99 1020.6
20260505015126 53 124 0.0 0.0 0.00 0.00 0.00 99 1020.8
20260505014659 53 124 0.0 0.0 0.00 0.00 0.00 99 1020.8
20260505014136 54 124 0.0 0.0 0.00 0.00 0.00 99 1020.8
20260505013656 53 125 0.0 0.0 0.00 0.00 0.00 99 1020.8
20260505013137 53 125 0.0 0.0 0.00 0.00 0.00 99 1020.7
20260505012631 54 124 0.0 0.0 0.00 0.00 0.00 99 1020.9
20260505012124 54 124 0.0 0.0 0.00 0.00 0.00 99 1020.8
20260505011626 54 124 0.0 0.0 0.00 0.00 0.00 99 1020.8
20260505010628 54 124 0.0 0.0 0.00 0.00 0.00 98 1020.9
20260505010138 54 124 0.0 0.0 0.00 0.00 0.00 98 1020.9
20260505005623 54 124 0.0 0.0 0.00 0.00 0.00 98 1021.0
20260505005129 54 124 0.0 0.0 0.00 0.00 0.00 98 1021.1
20260505004634 54 125 0.0 0.0 0.00 0.00 0.00 98 1021.1
20260505004202 54 124 0.0 0.0 0.00 0.00 0.00 98 1021.1
20260505003658 54 124 0.0 0.0 0.00 0.00 0.00 98 1021.1
20260505003142 54 124 0.0 0.0 0.00 0.00 0.00 98 1021.1
20260505002641 54 124 0.0 0.0 0.00 0.00 0.00 98 1021.3
20260505002149 54 124 0.0 0.0 0.00 0.00 0.00 98 1021.3
20260505001626 54 124 0.0 0.0 0.00 0.00 0.00 98 1021.4
20260505001142 55 124 0.0 0.0 0.00 0.00 0.00 98 1021.5
20260505000624 55 124 0.0 0.0 0.00 0.00 0.00 98 1021.6
20260505000129 55 124 0.0 0.0 0.00 0.00 0.00 97 1021.5
20260504235631 55 124 0.0 1.0 0.00 0.00 0.00 97 1021.4
20260504235143 55 124 0.0 1.0 0.00 0.00 0.00 97 1021.4
20260504234634 55 124 0.0 1.0 0.00 0.00 0.00 97 1021.5
20260504234137 56 124 0.0 2.0 0.00 0.00 0.00 97 1021.5
20260504233652 56 124 0.0 2.0 0.00 0.00 0.00 97 1021.6
20260504233137 56 178 0.0 2.0 0.00 0.00 0.00 97 1021.6
20260504232637 55 179 0.0 1.0 0.00 0.00 0.00 97 1021.8
20260504232123 55 179 0.0 1.0 0.00 0.00 0.00 97 1021.9
20260504231630 56 179 0.0 1.0 0.00 0.00 0.00 97 1022.0
20260504231136 56 179 0.0 3.0 0.00 0.00 0.00 97 1022.1
20260504230638 56 180 0.0 3.0 0.00 0.00 0.00 97 1022.2
20260504230142 55 182 0.0 2.0 0.00 0.00 0.00 97 1022.3
20260504225648 55 180 0.0 1.0 0.00 0.00 0.00 97 1022.2
20260504225133 55 180 0.0 1.0 0.00 0.00 0.00 97 1022.2
20260504224639 55 116 0.0 0.0 0.00 0.00 0.00 97 1022.1
20260504224141 55 116 0.0 0.0 0.00 0.00 0.00 97 1022.0
20260504223626 55 116 0.0 0.0 0.00 0.00 0.00 97 1022.0
20260504223152 55 116 0.0 0.0 0.00 0.00 0.00 97 1022.0
20260504222639 56 116 0.0 0.0 0.00 0.00 0.00 96 1022.1
20260504222124 56 116 0.0 0.0 0.00 0.00 0.00 96 1022.1
20260504221659 56 116 0.0 1.0 0.00 0.00 0.00 96 1022.3
20260504221138 56 116 0.0 1.0 0.00 0.00 0.00 96 1022.2
20260504220641 56 116 0.0 0.0 0.00 0.00 0.00 96 1022.2
20260504220137 56 116 0.0 1.0 0.00 0.00 0.00 96 1022.4
20260504215658 56 116 0.0 0.0 0.00 0.00 0.00 96 1022.5
20260504215124 57 116 0.0 0.0 0.00 0.00 0.00 95 1022.5
20260504214648 57 116 0.0 0.0 0.00 0.00 0.00 95 1022.6
20260504214137 57 116 0.0 0.0 0.00 0.00 0.00 95 1022.7
20260504213629 57 116 0.0 0.0 0.00 0.00 0.00 95 1022.8
20260504213203 57 116 0.0 0.0 0.00 0.00 0.00 95 1022.8
20260504212650 57 116 0.0 0.0 0.00 0.00 0.00 94 1022.8
20260504212157 58 116 0.0 3.0 0.00 0.00 0.00 94 1022.8
20260504211625 58 116 0.0 3.0 0.00 0.00 0.00 94 1022.8
20260504211128 58 116 0.0 1.0 0.00 0.00 0.00 93 1022.8
20260504210638 58 116 0.0 3.0 0.00 0.00 0.00 93 1022.8
20260504210126 58 116 0.0 3.0 0.00 0.00 0.00 93 1022.9
20260504205655 59 116 1.0 2.0 0.00 0.00 0.00 93 1022.9
20260504205124 59 116 0.0 2.0 0.00 0.00 0.00 92 1023.0
20260504204631 59 116 0.0 2.0 0.00 0.00 0.00 92 1023.0
20260504204140 60 116 0.0 2.0 0.00 0.00 0.00 91 1023.0
20260504203649 60 88 0.0 4.0 0.00 0.00 0.00 91 1023.0
20260504203138 60 88 0.0 4.0 0.00 0.00 0.00 91 1023.0
20260504202625 60 341 1.0 7.0 0.00 0.00 0.00 91 1023.1
20260504202134 60 44 2.0 7.0 0.00 0.00 0.00 91 1023.2
20260504201643 60 84 1.0 6.0 0.00 0.00 0.00 91 1023.2
20260504201131 60 44 2.0 5.0 0.00 0.00 0.00 91 1023.2
20260504200640 60 50 1.0 7.0 0.00 0.00 0.00 90 1023.2
20260504200150 60 38 4.0 7.0 0.00 0.00 0.00 90 1023.2
20260504195635 60 64 2.0 6.0 0.00 0.00 0.00 90 1023.2
20260504195146 61 4 2.0 6.0 0.00 0.00 0.00 90 1023.2
20260504194630 61 73 3.0 8.0 0.00 0.00 0.00 90 1023.2
20260504194140 61 358 3.0 8.0 0.00 0.00 0.00 90 1023.2
20260504193628 61 339 3.0 8.0 0.00 0.00 0.00 89 1023.2
20260504193137 60 19 4.0 8.0 0.00 0.00 0.00 89 1023.1
20260504192626 60 57 3.0 8.0 0.00 0.00 0.00 89 1023.0
20260504192131 60 106 2.0 8.0 0.00 0.00 0.00 89 1023.1
20260504191133 60 121 1.0 4.0 0.00 0.00 0.00 88 1023.1
20260504190643 60 85 1.0 4.0 0.00 0.00 0.00 88 1023.0
20260504190227 60 65 1.0 4.0 0.00 0.00 0.00 87 1023.0
20260504185631 60 96 1.0 4.0 0.00 0.00 0.00 86 1023.0
20260504185137 61 114 0.0 3.0 0.00 0.00 0.00 86 1023.1
20260504184646 61 122 0.0 4.0 0.00 0.00 0.00 85 1023.0
20260504184132 62 97 0.0 4.0 0.00 0.00 0.00 84 1023.1
20260504183640 62 15 1.0 5.0 0.00 0.00 0.00 84 1023.2
20260504183128 62 108 2.0 7.0 0.00 0.00 0.00 83 1023.2
20260504182636 63 95 3.0 7.0 0.00 0.00 0.00 83 1023.2
20260504182123 63 42 3.0 8.0 0.00 0.00 0.00 83 1023.2
20260504181639 63 137 2.0 8.0 0.00 0.00 0.00 82 1023.1
20260504181129 63 35 4.0 9.0 0.00 0.00 0.00 82 1023.1
20260504180659 63 350 4.0 9.0 0.00 0.00 0.00 81 1023.1
20260504180126 64 97 2.0 8.0 0.00 0.00 0.00 81 1023.1
20260504175635 64 284 2.0 8.0 0.00 0.00 0.00 81 1023.0
20260504175125 64 4 2.0 7.0 0.00 0.00 0.00 81 1023.0
20260504174633 64 74 2.0 7.0 0.00 0.00 0.00 81 1023.1
20260504174203 64 344 3.0 7.0 0.00 0.00 0.00 81 1023.2
20260504173631 64 347 2.0 7.0 0.00 0.00 0.00 81 1023.1
20260504173131 64 343 1.0 8.0 0.00 0.00 0.00 81 1023.2
20260504172640 64 29 2.0 8.0 0.00 0.00 0.00 81 1023.2
20260504172128 64 294 2.0 7.0 0.00 0.00 0.00 81 1023.2
20260504171658 64 355 2.0 8.0 0.00 0.00 0.00 81 1023.1
20260504171147 64 341 2.0 8.0 0.00 0.00 0.00 81 1023.0
20260504170654 64 300 2.0 6.0 0.00 0.00 0.00 80 1023.1
20260504170141 64 57 2.0 7.0 0.00 0.00 0.00 80 1023.1
20260504160131 66 51 1.0 4.0 0.00 0.00 0.00 76 1022.8
20260504151134 71 352 2.0 8.0 0.00 0.00 0.00 67 1022.8
20260504150638 71 334 2.0 8.0 0.00 0.00 0.00 67 1022.8
20260504150134 72 262 3.0 8.0 0.00 0.00 0.00 65 1022.8
20260504141139 73 231 4.0 11.0 0.00 0.00 0.00 65 1023.0
20260504140625 73 326 5.0 10.0 0.00 0.00 0.00 63 1023.0
20260504140157 73 283 3.0 9.0 0.00 0.00 0.00 63 1023.1
20260504130632 73 287 3.0 10.0 0.00 0.00 0.00 64 1023.1
20260504130139 74 26 3.0 10.0 0.00 0.00 0.00 64 1023.1
20260504120139 74 334 2.0 8.0 0.00 0.00 0.00 68 1023.6
20260504110627 72 73 5.0 12.0 0.00 0.00 0.00 72 1024.6
20260504110135 72 43 5.0 15.0 0.00 0.00 0.00 73 1024.8
20260504100138 70 334 7.0 14.0 0.00 0.00 0.00 80 1025.9
20260504090127 68 245 3.0 13.0 0.00 0.00 0.00 86 1026.9
20260504081630 66 96 4.0 11.0 0.00 0.00 0.00 92 1027.5
20260504081155 65 360 2.0 8.0 0.00 0.00 0.00 93 1027.5
20260504080642 65 300 3.0 8.0 0.00 0.00 0.00 94 1027.6
20260504080124 65 256 1.0 8.0 0.00 0.00 0.00 95 1027.7